Regional Weather Roundup
Issued by NWS Sterling, VA

Home | Current Version | Previous Version | Text Only | Print | Product List | Glossary Off
Versions: 1 2 3 4 5 6 7 8 9 10 11 12 13 14 15 16 17 18 19 20 21 22 23 24 25 26 27 28

000
ASUS41 KLWX 242111
RWRLWX

REGIONAL WEATHER ROUNDUP
NATIONAL WEATHER SERVICE BALTIMORE MD/WASHINGTON DC
400 PM EST SAT FEB 24 2018

Note: "FAIR" indicates few or no clouds below 12,000 feet
with no significant weather and/or obstructions to visibility.
 TC=TEMPERATURE CELSIUS

 * =Non NWS site. Station does not report precipitation (e.g. rain,
    snow, etc.), thunder, or fog.

DCZ001-MDZ009-015-VAZ040>042-051-053>054-242200-
WASHINGTON METRO

CITY           SKY/WX    TMP DP  RH WIND       PRES   REMARKS
WASHINGTON NAT LGT RAIN  52  49  89 NE10      30.13R
DULLES         LGT RAIN  51  50  96 E7        30.11F
ANDREWS AFB    LGT RAIN  50  50 100 NE8       30.11S
FT BELVOIR     LGT RAIN  52  49  92 NE6       30.11S FOG
QUANTICO       CLOUDY    53  52  96 NE10      30.11F
COLLEGE PARK*  CLOUDY    50  47  90 NE3       30.13S
LEESBURG*      LGT RAIN  46  46 100 NE5       30.13F
MANASSAS*      LGT RAIN  52  50  93 NE8       30.11F
GAITHERSBURG*  LGT RAIN  49  49 100 E6        30.12S

$$

MDZ006>007-011-014-242200-
BALTIMORE METRO

CITY           SKY/WX    TMP DP  RH WIND       PRES   REMARKS
BWI AIRPORT    LGT RAIN  49  47  93 E6G18     30.14R
MD SCIENCE CTR   N/A     52  46  80 MISG      30.16R
MARTIN STATE   LGT RAIN  52  50  93 CALM      30.16R
ANNAPOLIS      LGT RAIN  50  49  96 N8        30.14R
FORT MEADE*    CLOUDY    50  46  87 NE6       30.16R

$$

MDZ012-015-019>023-242200-
MARYLAND EASTERN SHORE

CITY           SKY/WX    TMP DP  RH WIND       PRES   REMARKS
OCEAN CITY     FOG       50  50 100 N3        30.13R VSB 1/2
SALISBURY      CLOUDY    56  54  93 NE12      30.12R FOG
BAY BRIDGE AP* LGT RAIN  48  48 100 N5        30.14R FOG
CAMBRIDGE*     CLOUDY    54  54 100 NE5       30.11F FOG
EASTON*        RAIN      54  50  87 E7        30.15F

$$

MDZ017>025-242200-
SOUTHERN MARYLAND

CITY           SKY/WX    TMP DP  RH WIND       PRES   REMARKS
PATUXENT RIVER FOG       50  50 100 N8        30.11F VSB 1
ST INIGOES     CLOUDY    55  53  93 NE8       30.09F FOG
LEONARDTOWN*   CLOUDY    50  46  87 NE3       30.12F VSB 3/4

$$

MDZ003>005-242200-
NORTH CENTRAL MARYLAND

CITY           SKY/WX    TMP DP  RH WIND       PRES   REMARKS
FREDERICK*     CLOUDY    50  50 100 NE10      30.17R
HAGERSTOWN APT CLOUDY    49  45  86 E6        30.14R
WESTMINSTER*   DRIZZLE   48  48 100 NE9       30.13F

$$

MDZ501>502-242200-
WESTERN MARYLAND

CITY           SKY/WX    TMP DP  RH WIND       PRES   REMARKS
OAKLAND*       CLOUDY    43  43 100 E12       30.05F
CUMBERLAND*    CLOUDY    50  50 100 N5        30.16S

$$

VAZ025>031-242200-
SHENANDOAH VALLEY

CITY           SKY/WX    TMP DP  RH WIND       PRES   REMARKS
WINCHESTER*    RAIN      46  46 100 N5        30.12R
FRONT ROYAL*   CLOUDY    48  48 100 N6        30.08S
LURAY*         CLOUDY    50  48  93 NE7       30.07S
NEW MARKET*      N/A     49  48  96 NE5       30.05F
STAUNTON*      CLOUDY    62  58  86 NE5       30.05F
WAYNESBORO*    CLOUDY    65  58  78 CALM      30.04S

$$

WVZ021-048>050-054>055-242200-
EASTERN WEST VIRGINIA PANHANDLE

CITY           SKY/WX    TMP DP  RH WIND       PRES   REMARKS
MARTINSBURG    LGT RAIN  48  47  96 N10       30.11F
PETERSBURG*    RAIN      49  48  94 N6        30.07S

$$

VAZ036>039-050-242200-
CENTRAL FOOTHILLS

CITY           SKY/WX    TMP DP  RH WIND       PRES   REMARKS
CHARLOTTESVILL CLOUDY    57  52  83 NE8       30.07S
CULPEPER*      CLOUDY    53  51  94 NE3       30.10F
ORANGE*        CLOUDY    52  52 100 CALM      30.08F FOG
GORDONSVILLE*  CLOUDY    54  54 100 NE8       30.07F
WARRENTON*     CLOUDY    52  49  89 NE5       30.09F

$$

VAZ055>057-242200-
NORTH AND CENTRAL PIEDMONT

CITY           SKY/WX    TMP DP  RH WIND       PRES   REMARKS
FREDERICKSBRG* CLOUDY    56  55  99 NE9       30.09S FOG
STAFFORD*      CLOUDY    55  55 100 E9        30.13F FOG

$$

NCZ024-NYZ072-PAZ021-071-VAZ022-071-242200-
OTHER REGIONAL OBSERVATIONS

CITY           SKY/WX    TMP DP  RH WIND       PRES   REMARKS
NEW YORK CITY  LGT RAIN  48  42  80 NW5       30.20R
PHILADELPHIA   LGT RAIN  50  46  86 CALM      30.17R FOG
PITTSBURGH     CLOUDY    47  45  93 E12       30.03F
ROANOKE        PTSUNNY   71  57  61 E3        30.03F
RICHMOND       PTSUNNY   75  59  57 W14       30.04F
RALEIGH        PTSUNNY   77  60  55 S12       30.09F

$$

ANZ530>537-242200-
MARINE OBSERVATIONS

STATION/POSITION TIME  TEMP    WIND        PRES
                       AIR SEA DIR/SP/G
                 (UTC) (F)     (DEG/KT/KT) (MB)
THOMAS PT LIGHT  2100   46 43   10/ 10/ 10   N/A
BALT KEY BRIDGE  2036   50      60/  8/ 10 1020.7R
COVE POINT       2036   45      10/ 10/ 13 1020.5F
LEWISETTA        2036   52 50   30/  5/  8 1019.1F
SOLOMONS ISLAND  2036   48 44  360/  9/ 12 1019.3F
PINEY POINT      2042           50/  6/  7   N/A

$$





USA.gov is the U.S. government's official web portal to all federal, state and local government web resources and services.